FW7738 Weather Reports


time (UTC)temp
F
wind
direction
speed
knots
gust
knots
rain 1hr
in
rain 24hr
in
rain mn
in
humidity
%
barometer
mb
20260504050017 62 340 0.9 0.9 0.00 0.00 0.00 86 1010.9
20260504045033 62 347 0.9 1.7 0.00 0.00 0.00 87 1010.8
20260504044028 62 346 0.9 0.9 0.00 0.00 0.00 87 1010.8
20260504043044 63 346 0.9 1.7 0.00 0.00 0.00 87 1010.8
20260504042019 63 1 0.9 1.7 0.00 0.00 0.00 87 1010.8
20260504041034 63 4 0.0 0.9 0.00 0.00 0.00 86 1011.0
20260504040029 63 12 0.0 0.9 0.00 0.00 0.00 86 1011.0
20260504035025 63 12 0.0 0.9 0.00 0.00 0.00 86 1011.2
20260504034020 63 24 0.0 0.9 0.00 0.00 0.00 85 1011.4
20260504033015 63 38 0.0 0.9 0.00 0.00 0.00 85 1011.5
20260504032031 63 0.0 0.0 0.00 0.00 0.00 85 1011.5
20260504031026 63 0.0 0.0 0.00 0.00 0.00 85 1011.7
20260504030021 63 73 0.0 0.9 0.00 0.00 0.00 86 1011.7
20260504025017 63 0.0 0.0 0.00 0.00 0.00 86 1011.7
20260504024033 63 0.0 0.0 0.00 0.00 0.00 86 1011.7
20260504023028 63 0.0 0.0 0.00 0.00 0.00 86 1011.7
20260504022024 63 20 0.0 0.9 0.00 0.00 0.00 87 1011.6
20260504021039 63 0.0 0.0 0.00 0.00 0.00 87 1011.6
20260504020055 63 0.0 0.0 0.00 0.00 0.00 87 1011.6
20260504015030 63 0.0 0.0 0.00 0.00 0.00 87 1011.6
20260504014025 63 0.0 0.0 0.00 0.00 0.00 87 1011.6
20260504013020 63 352 0.9 0.9 0.00 0.00 0.00 88 1011.6
20260504012035 63 350 0.9 1.7 0.00 0.00 0.00 88 1011.7
20260504011031 63 351 0.9 2.6 0.00 0.00 0.00 87 1011.7
20260504010026 63 345 1.7 3.5 0.00 0.00 0.00 86 1011.7
20260504005022 63 355 0.9 0.9 0.00 0.00 0.00 86 1011.8
20260504004057 63 19 0.9 1.7 0.00 0.00 0.00 85 1011.8
20260504003032 63 70 0.9 0.9 0.00 0.00 0.00 85 1011.9
20260504002048 63 0.0 0.0 0.00 0.00 0.00 85 1012.0
20260504001023 63 72 0.0 0.9 0.00 0.00 0.00 85 1012.1
20260504000018 63 72 0.0 0.9 0.00 0.00 0.00 85 1012.3
20260503235034 63 0.0 0.0 0.00 0.00 0.00 85 1012.4
20260503234029 63 75 0.0 0.9 0.00 0.00 0.00 86 1012.4
20260503233025 63 0.0 0.0 0.00 0.00 0.00 86 1012.5
20260503232020 63 63 0.9 0.9 0.00 0.00 0.00 86 1012.5
20260503231016 63 59 0.0 0.9 0.00 0.00 0.00 86 1012.5
20260503230031 63 59 0.0 0.9 0.00 0.00 0.00 86 1012.5
20260503225026 63 63 0.0 0.9 0.00 0.00 0.00 86 1012.6
20260503224021 63 64 0.0 0.9 0.00 0.00 0.00 86 1012.6
20260503223017 63 61 0.0 0.9 0.00 0.00 0.00 86 1012.5
20260503222032 63 56 0.0 0.9 0.00 0.00 0.00 87 1012.5
20260503221147 63 77 0.0 1.7 0.00 0.00 0.00 87 1012.6
20260503220022 63 74 0.9 1.7 0.00 0.00 0.00 87 1012.7
20260503215018 64 78 0.9 2.6 0.00 0.00 0.00 86 1012.8
20260503214033 64 96 0.9 3.5 0.00 0.00 0.00 86 1012.8
20260503213028 64 104 1.7 2.6 0.00 0.00 0.00 86 1012.9
20260503212024 63 140 2.6 5.2 0.00 0.00 0.00 86 1012.9
20260503211019 63 117 1.7 3.5 0.00 0.00 0.00 87 1012.8
20260503210035 64 118 1.7 3.5 0.00 0.00 0.00 87 1012.8
20260503205030 64 113 2.6 3.5 0.00 0.00 0.00 87 1012.6
20260503204026 64 110 0.9 2.6 0.00 0.00 0.00 87 1012.5
20260503203020 64 105 0.9 2.6 0.00 0.00 0.00 87 1012.2
20260503202036 64 80 0.9 1.7 0.00 0.00 0.00 87 1012.1
20260503201032 64 82 0.9 2.6 0.00 0.00 0.00 86 1011.9
20260503200027 64 87 1.7 3.5 0.00 0.00 0.00 86 1011.9
20260503195022 64 87 1.7 3.5 0.00 0.00 0.00 86 1011.7
20260503194018 64 95 0.9 2.6 0.00 0.00 0.00 85 1011.8
20260503193033 64 79 0.9 5.2 0.00 0.00 0.00 85 1011.7
20260503192029 64 73 1.7 5.2 0.00 0.00 0.00 84 1011.5
20260503191024 64 109 1.7 5.2 0.00 0.00 0.00 84 1011.7
20260503190019 64 87 1.7 5.2 0.00 0.00 0.00 84 1011.7
20260503185054 64 88 3.5 7.0 0.00 0.00 0.00 83 1011.5
20260503184030 64 96 2.6 6.1 0.00 0.00 0.00 82 1011.6
20260503183025 64 92 3.5 7.8 0.00 0.00 0.00 83 1011.5
20260503182021 65 92 4.3 8.7 0.00 0.00 0.00 81 1011.5
20260503181016 65 108 3.5 7.8 0.00 0.00 0.00 81 1011.4
20260503180031 65 89 4.3 8.7 0.00 0.00 0.00 81 1011.1
20260503175027 65 98 5.2 9.6 0.00 0.00 0.00 79 1011.3
20260503174022 65 93 3.5 8.7 0.00 0.00 0.00 80 1011.3
20260503173017 65 103 5.2 8.7 0.00 0.00 0.00 79 1011.3
20260503172033 65 89 2.6 7.8 0.00 0.00 0.00 79 1011.2
20260503171028 65 104 4.3 7.8 0.00 0.00 0.00 78 1011.5
20260503131016 67 90 2.6 7.0 0.00 0.00 0.00 74 1012.6
20260503081037 63 127 3.5 7.0 0.00 0.00 0.00 85 1014.4
20260503072032 63 60 0.9 2.6 0.00 0.00 0.00 91 1014.0
20260503071028 63 52 0.9 1.7 0.00 0.00 0.00 91 1013.8
20260503055030 62 44 0.0 1.7 0.00 0.00 0.00 91 1013.5
20260503054025 62 54 1.7 5.2 0.00 0.00 0.00 91 1013.6
20260503053020 63 45 0.9 3.5 0.00 0.00 0.00 91 1013.5